| time (UTC) | temp F | wind direction | speed MPH | gust MPH | rain 1hr in | rain 24hr in | rain mn in | humidity % | barometer mb |
| 20260503220058 | 75 | 13 | 1.0 | 5.0 | 0.00 | 0.00 | 0.00 | 39 | 1013.3 |
| 20260503214555 | 74 | 352 | 1.0 | 5.0 | 0.00 | 0.00 | 0.00 | 39 | 1013.4 |
| 20260503213059 | 75 | 350 | 1.0 | 4.0 | 0.00 | 0.00 | 0.00 | 38 | 1013.6 |
| 20260503211556 | 74 | 338 | 1.0 | 4.0 | 0.00 | 0.00 | 0.00 | 37 | 1013.7 |
| 20260503210054 | 75 | 271 | 1.0 | 9.0 | 0.00 | 0.00 | 0.00 | 37 | 1014.0 |
| 20260503204556 | 75 | 349 | 1.0 | 7.0 | 0.00 | 0.00 | 0.00 | 39 | 1014.0 |
| 20260503203101 | 74 | 330 | 0.0 | 4.0 | 0.00 | 0.00 | 0.00 | 38 | 1013.9 |
| 20260503201600 | 73 | 261 | 3.0 | 7.0 | 0.00 | 0.00 | 0.00 | 41 | 1014.0 |
| 20260503200057 | 73 | 15 | 1.0 | 4.0 | 0.00 | 0.00 | 0.00 | 41 | 1014.1 |
| 20260503194558 | 73 | 0 | 1.0 | 4.0 | 0.00 | 0.00 | 0.00 | 42 | 1014.3 |
| 20260503193056 | 72 | 0 | 0.0 | 4.0 | 0.00 | 0.00 | 0.00 | 43 | 1014.6 |
| 20260503191555 | 71 | 352 | 1.0 | 4.0 | 0.00 | 0.00 | 0.00 | 44 | 1014.7 |
| 20260503190053 | 70 | 360 | 1.0 | 4.0 | 0.00 | 0.00 | 0.00 | 45 | 1014.7 |
| 20260503184611 | 69 | 343 | 0.0 | 4.0 | 0.00 | 0.00 | 0.00 | 48 | 1014.9 |
| 20260503183057 | 69 | 352 | 2.0 | 5.0 | 0.00 | 0.00 | 0.00 | 49 | 1014.9 |
| 20260503181558 | 68 | 0 | 2.0 | 4.0 | 0.00 | 0.00 | 0.00 | 51 | 1015.1 |
| 20260503180057 | 66 | 262 | 2.0 | 7.0 | 0.00 | 0.00 | 0.00 | 57 | 1015.3 |
| 20260503173058 | 66 | 0 | 1.0 | 4.0 | 0.00 | 0.00 | 0.00 | 58 | 1015.4 |
| 20260503171610 | 64 | 45 | 2.0 | 6.0 | 0.00 | 0.00 | 0.00 | 59 | 1015.4 |
| 20260503110112 | 64 | 296 | 1.0 | 3.0 | 0.00 | 0.00 | 0.00 | 53 | 1015.5 |
| 20260503100108 | 63 | 296 | 1.0 | 3.0 | 0.00 | 0.00 | 0.00 | 54 | 1015.4 |
| 20260503090120 | 59 | 295 | 1.0 | 3.0 | 0.00 | 0.00 | 0.00 | 68 | 1015.3 |
| 20260503081555 | 62 | 0 | 0.0 | 2.0 | 0.00 | 0.00 | 0.00 | 59 | 1015.3 |
| 20260503071608 | 65 | 0 | 0.0 | 1.0 | 0.00 | 0.00 | 0.00 | 49 | 1015.2 |
| 20260503060103 | 68 | 295 | 1.0 | 3.0 | 0.00 | 0.00 | 0.00 | 45 | 1015.1 |
| 20260503054602 | 68 | 295 | 1.0 | 3.0 | 0.00 | 0.00 | 0.00 | 44 | 1015.1 |
| 20260503053051 | 69 | 294 | 1.0 | 3.0 | 0.00 | 0.00 | 0.00 | 44 | 1015.3 |
| 20260503051551 | 69 | 292 | 1.0 | 3.0 | 0.00 | 0.00 | 0.00 | 43 | 1015.2 |
| 20260503050055 | 68 | 292 | 1.0 | 3.0 | 0.00 | 0.00 | 0.00 | 43 | 1015.1 |
| 20260503044556 | 69 | 288 | 1.0 | 3.0 | 0.00 | 0.00 | 0.00 | 44 | 1015.1 |
| 20260503043057 | 69 | 0 | 0.0 | 2.0 | 0.00 | 0.00 | 0.00 | 43 | 1015.1 |
| 20260503041551 | 68 | 288 | 1.0 | 3.0 | 0.00 | 0.00 | 0.00 | 44 | 1015.0 |
| 20260503040057 | 68 | 288 | 0.0 | 2.0 | 0.00 | 0.00 | 0.00 | 44 | 1014.8 |
| 20260503034551 | 69 | 288 | 0.0 | 3.0 | 0.00 | 0.00 | 0.00 | 44 | 1014.7 |
| 20260503033054 | 69 | 319 | 0.0 | 4.0 | 0.00 | 0.00 | 0.00 | 44 | 1014.5 |
| 20260503031554 | 69 | 352 | 1.0 | 3.0 | 0.00 | 0.00 | 0.00 | 45 | 1014.4 |
| 20260503030059 | 70 | 21 | 0.0 | 3.0 | 0.00 | 0.00 | 0.00 | 45 | 1014.4 |
| 20260503024555 | 70 | 0 | 1.0 | 3.0 | 0.00 | 0.00 | 0.00 | 45 | 1014.3 |
| 20260503023104 | 70 | 22 | 0.0 | 5.0 | 0.00 | 0.00 | 0.00 | 44 | 1014.3 |
| 20260503021605 | 70 | 342 | 1.0 | 4.0 | 0.00 | 0.00 | 0.00 | 44 | 1014.4 |
| 20260503020057 | 71 | 0 | 1.0 | 3.0 | 0.00 | 0.00 | 0.00 | 45 | 1014.5 |
| 20260503014558 | 71 | 5 | 1.0 | 4.0 | 0.00 | 0.00 | 0.00 | 44 | 1014.7 |
| 20260503013100 | 70 | 0 | 1.0 | 4.0 | 0.00 | 0.00 | 0.00 | 45 | 1014.8 |
| 20260503011608 | 71 | 5 | 1.0 | 4.0 | 0.00 | 0.00 | 0.00 | 45 | 1015.0 |
| 20260503010058 | 71 | 360 | 2.0 | 4.0 | 0.00 | 0.00 | 0.00 | 44 | 1014.9 |
| 20260503004553 | 71 | 331 | 1.0 | 4.0 | 0.00 | 0.00 | 0.00 | 43 | 1015.0 |
| 20260503003054 | 72 | 0 | 1.0 | 4.0 | 0.00 | 0.00 | 0.00 | 43 | 1015.1 |
| 20260503001552 | 72 | 22 | 0.0 | 4.0 | 0.00 | 0.00 | 0.00 | 42 | 1015.1 |
| 20260503000103 | 72 | 0 | 1.0 | 4.0 | 0.00 | 0.00 | 0.00 | 42 | 1015.2 |
| 20260502234602 | 73 | 343 | 1.0 | 4.0 | 0.00 | 0.00 | 0.00 | 41 | 1015.3 |
| 20260502233052 | 73 | 348 | 1.0 | 7.0 | 0.00 | 0.00 | 0.00 | 40 | 1015.5 |
| 20260502231559 | 73 | 258 | 3.0 | 9.0 | 0.00 | 0.00 | 0.00 | 39 | 1015.6 |
| 20260502230056 | 73 | 258 | 2.0 | 7.0 | 0.00 | 0.00 | 0.00 | 40 | 1015.9 |
| 20260502224604 | 71 | 249 | 2.0 | 9.0 | 0.00 | 0.00 | 0.00 | 46 | 1016.2 |
| 20260502223057 | 71 | 250 | 3.0 | 8.0 | 0.00 | 0.00 | 0.00 | 46 | 1016.4 |
| 20260502221609 | 70 | 0 | 1.0 | 8.0 | 0.00 | 0.00 | 0.00 | 53 | 1016.7 |